GFSSW_850_spd_159.txt.gz
Wind_Speed
24 20 22 19 17 16 15 14 18 22 22 21 19 17 16 15 17 17 16 14 13 10 9 6 5 5 6 6 7 3 4 2 5 5 2 4 2 3 3 3 3 4 4 4 4
27 24 18 23 20 17 16 13 12 15 19 21 21 18 15 13 14 20 19 15 12 11 10 7 5 3 3 4 4 5 3 6 2 4 3 2 4 3 2 3 3 4 5 5 5
25 26 22 19 24 19 17 14 12 12 12 15 19 20 16 11 12 17 20 17 14 12 10 8 4 1 3 2 2 2 4 4 3 3 3 2 2 2 2 2 3 2 3 6 6
25 26 25 24 18 17 21 16 14 12 11 10 13 17 15 12 6 3 4 13 22 20 15 10 6 5 4 4 4 4 3 4 3 5 2 1 1 1 4 1 3 1 4 9 5
25 25 26 27 24 20 16 19 16 13 11 10 10 14 16 14 15 5 2 5 14 22 19 13 11 7 6 5 5 4 4 3 3 3 3 5 7 4 6 8 9 10 9 6 10
25 25 25 25 27 24 21 16 18 15 13 10 11 15 19 11 14 22 7 3 7 21 19 16 11 9 6 3 5 4 5 2 2 3 5 4 5 1 3 2 4 6 9 11 11
25 26 26 28 25 26 23 21 16 19 15 12 13 17 19 22 8 20 21 11 7 17 18 15 10 11 10 4 4 3 2 1 5 5 5 1 6 5 7 9 5 3 5 9 12
24 24 26 27 24 26 24 21 21 19 17 15 14 15 9 16 21 9 16 10 8 15 16 16 13 10 5 8 3 3 4 3 3 5 5 7 8 5 5 6 4 9 14 21 22
25 25 24 27 26 24 24 21 20 18 21 17 16 11 6 10 16 16 14 13 12 13 13 13 13 6 8 6 2 1 3 5 4 7 3 5 4 4 6 6 18 20 20 20 25
28 28 25 24 29 24 23 22 18 18 20 17 13 8 12 12 12 25 15 19 13 13 11 10 9 4 4 5 6 6 4 1 4 3 4 4 7 14 22 16 18 18 18 24 29
32 26 30 26 29 27 24 24 19 12 31 8 14 6 2 13 13 21 20 23 17 11 6 8 5 11 9 6 4 6 3 5 2 4 2 6 6 9 21 13 17 23 26 29 31
33 31 29 35 28 30 30 35 34 9 11 23 9 23 4 15 7 14 23 16 13 8 8 3 12 7 5 5 5 4 5 4 4 5 0 7 12 7 14 17 23 26 28 24 20
33 32 30 32 27 32 37 42 30 14 6 13 20 27 11 17 9 22 26 14 5 9 12 6 4 11 6 4 6 4 6 5 5 3 3 6 13 6 3 12 14 13 16 16 16
32 30 29 28 34 39 41 37 21 22 3 7 11 15 21 14 5 14 31 18 5 12 8 7 6 9 4 10 9 8 6 5 3 2 6 2 6 3 4 6 7 26 13 14 8
30 32 32 31 20 26 39 37 29 19 10 14 12 13 24 20 18 14 31 20 7 6 7 6 8 11 9 7 9 5 6 7 5 3 4 9 6 5 5 4 8 13 12 2 7
29 29 28 29 37 14 34 36 27 8 12 10 12 17 14 15 7 16 17 16 5 4 2 4 1 5 8 4 7 8 6 4 2 3 7 9 8 4 5 10 5 14 8 9 8
31 27 30 27 30 24 25 35 9 13 9 9 8 15 24 11 9 8 17 16 10 8 12 3 4 2 4 5 3 6 8 2 4 5 6 2 8 9 3 6 8 13 6 11 8
31 29 25 29 29 36 28 14 14 9 9 5 10 17 20 13 10 9 17 16 17 3 5 9 5 12 6 7 6 13 11 5 7 5 4 2 8 5 11 13 6 4 15 12 9
30 27 24 26 27 30 20 15 11 13 11 13 14 12 12 14 9 12 17 22 19 16 8 10 8 1 2 5 11 5 14 7 4 3 2 5 6 7 8 10 13 11 16 13 10
31 27 31 29 27 30 7 7 5 3 9 14 12 13 12 20 12 19 15 17 10 21 3 6 2 2 9 4 2 7 8 4 3 6 7 5 6 8 2 4 6 11 17 14 10
28 14 19 28 22 14 4 6 2 7 12 9 8 7 12 11 18 16 12 4 19 20 18 5 3 1 5 9 17 6 8 4 5 5 5 2 6 7 14 9 12 15 16 14 10
24 5 6 20 11 5 5 7 2 8 5 4 4 5 10 17 13 15 13 13 26 23 18 8 4 4 9 1 1 16 10 10 7 4 4 3 10 2 6 10 22 19 19 15 10
18 7 8 25 8 10 1 4 5 7 11 5 3 1 4 11 10 9 11 11 15 16 15 13 5 3 2 2 2 6 9 14 8 2 9 9 7 3 6 11 18 24 20 16 11
11 3 8 23 18 15 4 5 6 11 5 7 6 4 5 6 1 11 8 3 16 21 19 25 5 11 17 7 7 7 11 14 17 10 17 13 17 11 7 10 14 22 21 17 13
11 5 10 7 9 13 16 8 17 8 6 6 2 6 7 5 6 5 9 4 5 18 17 12 8 15 17 5 5 9 13 17 19 25 15 22 19 25 14 10 25 26 21 19 15
8 4 7 3 26 20 11 16 23 7 10 12 7 10 7 9 10 13 13 6 7 5 12 7 8 8 14 15 9 6 7 14 24 23 21 26 20 6 5 19 20 29 27 22 17
12 17 8 4 14 16 14 5 20 12 3 7 9 7 4 8 19 13 20 19 11 12 14 10 8 6 12 7 6 10 23 20 13 20 20 19 28 6 7 13 26 31 29 23 16

GFSSW_850_spd_162.txt.gz
Wind_Speed
21 19 19 19 16 15 14 13 18 21 20 18 16 14 13 14 16 15 14 13 13 11 7 5 4 3 5 4 4 2 2 5 5 7 5 3 3 2 3 3 2 3 3 2 3
26 23 20 20 19 17 16 13 11 14 19 20 18 16 12 11 12 17 16 12 12 10 8 7 6 2 1 1 2 1 3 3 2 4 6 5 3 3 3 5 3 4 6 6 6
25 27 24 21 21 20 17 15 12 11 12 14 17 18 14 9 8 11 15 15 13 11 11 8 7 4 3 2 1 2 3 6 5 4 5 3 3 1 2 3 3 4 3 4 4
24 26 27 23 19 22 18 16 14 12 10 10 12 15 14 10 6 3 6 13 20 18 14 11 8 6 6 6 3 5 4 6 8 6 4 4 2 2 3 2 2 3 2 4 2
25 24 25 25 23 20 23 19 15 12 11 10 11 13 14 10 10 5 3 3 13 23 20 13 11 8 8 6 5 6 5 5 5 6 4 5 6 4 6 6 6 7 9 7 7
23 24 23 25 25 22 17 17 18 14 11 11 12 14 16 14 12 19 7 2 3 15 20 16 9 8 6 6 9 6 5 2 2 5 4 5 5 5 6 10 5 8 7 8 10
25 23 22 24 25 23 20 17 14 16 13 12 13 16 13 16 8 17 20 9 2 12 17 17 9 9 9 7 5 6 7 1 6 7 6 5 11 11 14 13 10 9 8 8 10
24 22 21 23 25 25 23 20 17 14 17 14 13 14 8 16 17 9 13 13 6 12 15 15 13 9 3 9 5 5 3 7 7 10 5 6 12 2 9 9 9 8 10 11 16
19 22 20 21 23 24 23 22 18 16 15 17 16 11 6 10 15 19 11 12 10 12 13 13 12 9 7 9 4 6 4 11 3 8 4 13 7 6 7 6 9 14 16 18 20
25 21 20 19 22 23 23 20 15 17 19 16 13 8 9 10 10 19 15 14 14 17 12 11 9 9 10 11 9 10 7 6 7 7 7 9 15 9 12 15 18 18 18 20 21
27 25 21 22 20 25 26 26 16 12 28 9 12 5 6 10 13 16 19 19 14 15 10 18 10 15 18 18 5 7 8 7 5 5 5 13 14 15 16 18 20 22 22 21 20
31 30 28 23 24 26 29 33 33 10 10 27 14 19 6 18 7 13 22 16 13 12 12 7 18 14 12 14 14 7 7 6 2 4 4 9 14 15 24 19 24 24 23 20 12
29 29 29 27 24 26 37 39 23 13 6 13 18 23 14 16 7 22 28 15 14 17 15 15 2 20 13 11 14 14 14 11 8 3 6 10 14 9 9 10 16 19 16 8 5
26 29 28 26 24 33 24 41 18 21 5 9 13 12 18 12 5 15 30 18 6 18 15 13 7 13 14 16 14 16 10 7 5 3 4 4 7 8 8 12 9 10 12 8 6
27 26 28 31 22 20 16 39 22 19 9 14 12 12 24 17 17 13 29 17 11 11 9 7 11 11 15 14 13 6 11 11 8 8 9 12 4 5 4 14 16 17 7 8 9
28 27 26 28 27 25 21 37 29 9 10 10 14 18 16 24 10 12 15 15 10 8 5 12 1 10 14 6 15 11 8 4 2 2 8 14 11 9 12 12 12 14 9 12 10
30 28 28 30 28 24 20 33 8 9 6 10 11 18 27 13 14 13 18 17 14 10 16 9 13 3 4 10 5 14 14 4 6 6 8 0 13 18 7 13 14 11 14 13 12
27 27 25 29 26 25 23 12 14 6 9 9 12 21 22 18 12 15 19 17 20 13 10 12 8 15 11 14 9 18 14 6 7 7 5 3 11 6 12 17 6 4 17 14 13
26 26 24 27 25 25 9 7 8 5 11 15 16 23 11 14 10 16 23 24 22 21 13 12 14 4 11 8 16 8 13 13 1 2 3 7 8 10 10 12 13 13 16 15 13
31 27 23 23 21 21 4 4 3 2 12 20 13 16 12 21 15 21 18 20 20 25 10 6 4 2 13 7 12 10 10 5 6 8 9 11 15 13 10 16 17 13 17 15 14
30 14 9 21 16 6 2 5 2 6 9 18 14 7 16 13 18 16 13 7 26 22 23 7 3 3 7 15 20 8 12 7 5 9 9 8 9 10 18 16 16 19 23 22 18
24 4 11 20 9 4 6 4 6 3 10 9 8 9 15 19 16 18 21 20 29 24 22 15 6 9 13 1 9 19 17 19 9 9 11 12 15 7 7 12 16 18 23 21 20
19 7 13 24 6 6 3 1 4 5 7 5 11 9 12 17 12 18 17 16 17 22 17 15 7 5 5 5 2 11 17 18 18 4 14 11 14 8 13 12 14 21 24 22 21
11 4 8 17 5 9 10 6 3 8 7 7 3 5 14 16 9 17 16 7 16 27 20 25 10 14 17 15 11 10 17 20 18 8 20 18 27 22 10 10 13 20 23 22 23
6 4 7 6 11 11 14 11 16 7 11 9 4 8 15 11 16 10 18 9 8 16 18 12 8 17 21 17 9 18 21 20 22 28 19 24 25 26 21 16 19 23 23 23 23
8 4 3 0 7 15 15 16 20 17 3 5 10 18 17 10 15 15 18 12 12 9 17 9 7 10 15 20 20 17 13 20 28 27 24 29 26 23 27 24 22 26 29 28 25
6 5 4 5 5 11 18 20 22 18 11 11 11 12 14 14 25 17 21 15 8 15 18 13 11 7 15 17 17 13 25 25 21 25 25 25 31 27 24 18 23 26 32 36 30

GFSSW_850_spd_165.txt.gz
Wind_Speed
22 19 21 19 17 16 15 15 18 20 20 18 17 17 17 17 16 12 9 11 12 9 5 5 5 4 3 3 4 2 4 6 5 5 7 7 6 2 2 5 4 4 6 6 6
26 23 20 18 20 17 16 15 13 14 19 20 18 15 14 13 13 15 14 13 13 10 6 4 5 4 2 1 1 3 5 4 3 3 7 7 4 5 5 7 7 8 7 7 6
27 26 24 21 19 20 18 17 14 12 12 15 18 16 13 10 6 7 17 17 13 12 11 8 5 3 6 3 3 2 6 4 4 3 5 6 7 4 5 6 5 8 7 5 4
26 26 26 24 21 20 20 18 16 13 11 11 13 15 13 10 7 6 10 14 17 16 13 5 6 6 7 7 6 6 2 6 5 4 4 6 3 6 6 1 5 5 4 2 3
23 26 25 26 25 20 23 20 16 14 12 11 11 13 13 9 12 5 5 6 13 19 16 9 10 10 9 9 7 10 8 5 5 5 5 2 8 9 10 9 6 6 6 6 7
23 22 24 24 26 24 22 22 19 16 13 11 11 14 12 14 9 16 6 2 3 11 14 11 6 10 9 8 12 5 8 10 8 10 6 7 13 5 12 14 13 11 10 9 10
21 23 23 23 26 25 22 24 23 18 15 12 12 13 11 12 8 14 17 6 2 7 12 12 8 9 6 5 2 5 9 9 12 12 10 8 16 17 18 9 12 13 13 14 14
20 24 23 23 23 25 22 21 18 21 17 14 13 11 6 14 10 8 12 12 6 7 9 11 10 7 7 6 4 8 9 13 10 15 7 8 18 10 17 18 19 19 15 15 16
19 21 26 19 22 23 24 21 20 16 20 17 14 9 5 8 14 16 8 10 8 8 9 10 10 10 7 9 7 9 8 15 10 10 12 12 12 15 8 11 15 15 17 19 19
22 18 21 26 22 23 23 20 17 16 19 19 13 6 10 7 10 14 12 15 11 13 9 10 9 9 10 11 10 12 15 11 16 7 14 14 19 8 8 11 14 17 19 21 21
26 24 19 24 21 24 24 22 13 10 27 9 16 5 3 7 10 15 18 18 12 17 11 18 10 15 17 17 15 6 13 13 11 6 8 15 18 16 18 21 24 23 24 24 22
33 23 19 24 22 21 28 25 27 6 6 16 14 14 5 9 5 12 20 15 15 13 16 8 17 15 14 16 16 11 11 12 3 6 9 13 18 18 22 25 26 28 28 25 20
32 30 24 21 21 20 33 33 12 11 5 10 13 20 9 16 5 19 23 16 15 17 17 15 3 20 15 15 17 17 15 12 8 7 12 14 21 24 22 30 28 29 26 20 14
29 28 26 27 24 28 24 29 19 17 5 9 14 10 17 9 6 14 27 16 8 17 15 13 19 8 18 18 16 17 16 14 13 7 7 5 7 6 8 10 12 15 17 16 13
25 24 27 31 18 22 25 25 21 13 11 17 12 10 19 20 13 14 27 16 13 12 15 8 11 14 16 18 16 12 4 11 11 12 11 14 7 5 10 15 18 21 16 13 12
27 23 24 28 20 16 24 20 27 9 12 9 15 21 20 26 13 12 23 10 9 12 16 16 1 9 15 8 10 8 7 5 5 7 9 15 12 9 12 13 3 10 17 12 14
29 24 23 23 25 18 18 23 6 10 9 9 11 21 28 16 16 14 18 16 11 8 15 15 11 4 4 11 8 11 9 4 5 6 8 0 12 15 6 4 9 6 11 15 15
29 24 23 23 19 22 16 3 12 7 6 10 14 21 26 22 18 20 19 16 22 18 10 14 9 19 13 14 8 20 15 6 6 6 5 7 10 4 5 17 13 12 14 15 15
27 24 23 23 23 20 18 10 4 1 10 12 16 17 15 17 12 17 24 24 24 24 14 15 13 10 13 13 16 11 17 15 5 3 4 8 10 13 10 11 15 10 14 17 16
28 21 18 25 23 21 4 6 3 6 6 18 13 17 18 20 18 19 19 20 24 25 22 5 5 2 11 12 15 10 8 8 4 6 9 12 16 13 7 14 15 15 16 18 17
26 12 16 21 20 6 2 4 3 4 9 9 18 12 18 15 21 18 17 12 27 24 23 9 6 3 11 14 17 11 9 9 7 8 9 12 12 10 15 15 17 21 21 19 19
24 4 18 25 4 2 0 1 7 5 4 5 7 13 23 23 19 19 25 23 24 27 27 20 6 10 14 2 16 17 16 18 8 13 11 16 20 4 2 9 14 19 22 24 20
16 7 15 18 4 3 1 4 2 5 1 6 6 12 18 22 14 18 21 23 15 23 18 15 6 5 3 5 5 11 15 18 20 13 14 12 16 13 19 10 13 15 17 19 20
12 4 4 11 3 6 9 5 6 4 4 5 7 8 13 18 18 21 20 12 18 26 21 21 11 16 17 17 10 11 17 21 18 9 20 19 27 21 13 10 16 18 17 22 21
4 2 5 5 7 5 9 6 12 7 7 11 5 5 8 17 22 15 22 13 11 18 22 12 8 20 22 21 14 13 17 18 22 26 19 24 24 27 20 17 21 18 22 23 27
5 4 4 1 10 16 14 14 16 16 11 8 11 12 11 7 20 17 22 18 14 15 19 10 9 14 17 20 19 21 16 16 24 26 24 27 27 28 31 28 23 27 26 26 27
4 7 3 6 4 10 14 16 20 20 13 22 15 6 10 18 23 19 21 17 5 14 18 13 10 6 13 16 17 16 22 25 22 22 25 23 29 25 27 25 30 28 25 29 35

GFSSW_850_spd_168.txt.gz
Wind_Speed
20 19 24 19 17 16 15 16 19 20 19 18 17 16 16 15 14 13 9 10 12 9 4 8 10 9 6 4 5 4 2 3 1 3 8 9 6 2 5 11 10 7 12 12 11
22 21 19 21 20 17 16 15 14 16 19 19 16 15 15 14 13 15 14 16 14 12 7 4 7 8 6 2 3 2 2 4 9 10 8 8 4 8 5 11 12 11 11 11 10
25 23 22 19 19 20 17 16 14 13 13 17 18 16 13 10 8 8 16 18 15 11 11 7 5 7 8 3 3 2 2 5 5 8 8 8 5 4 6 5 17 17 10 8 8
22 25 23 24 20 19 18 17 16 14 11 12 15 16 14 10 6 4 12 13 15 15 12 3 3 4 4 5 5 3 2 3 7 5 3 5 6 5 5 6 11 14 12 8 7
21 22 24 23 24 21 19 19 18 15 12 12 12 14 13 9 9 9 4 7 12 16 14 6 6 7 6 5 5 5 4 1 5 4 4 1 2 6 6 4 7 7 10 8 7
20 21 22 23 23 24 21 22 19 17 14 12 12 15 15 11 9 12 6 1 4 11 14 11 2 8 7 10 6 8 12 7 3 5 3 2 6 6 8 11 9 11 10 10 10
25 21 19 22 23 24 24 22 23 19 16 13 12 16 11 11 7 16 14 5 3 7 8 11 7 3 4 4 1 3 5 1 4 8 4 4 6 10 17 12 13 15 14 12 12
26 20 22 20 21 23 25 21 21 21 17 14 12 14 6 12 11 8 15 12 5 8 9 10 9 4 3 4 3 2 5 6 8 14 6 7 5 12 26 20 18 16 17 16 16
22 21 21 19 21 21 22 19 18 24 20 17 16 10 5 10 21 14 8 12 8 8 8 10 10 4 3 4 3 4 3 9 8 21 7 8 5 15 14 8 15 16 17 21 15
24 20 21 22 20 20 21 20 19 17 25 21 13 8 11 9 11 16 14 13 12 13 8 7 6 4 5 6 6 7 9 7 9 6 3 8 9 13 6 7 12 17 19 17 17
24 20 21 20 25 21 22 20 12 8 23 6 15 4 7 11 10 14 18 19 14 16 6 14 4 11 14 11 10 2 4 10 8 5 4 9 12 10 18 18 16 18 18 21 21
25 24 19 19 23 24 25 26 23 5 6 14 16 9 8 9 6 17 20 11 12 10 13 6 13 12 10 10 10 8 6 8 2 4 1 8 13 11 14 17 21 23 26 25 22
23 28 23 15 19 27 23 32 12 12 6 11 13 17 8 12 6 22 23 12 11 12 14 8 3 19 14 9 11 10 8 7 6 3 4 8 12 16 14 28 26 29 30 28 24
24 30 24 24 13 22 28 33 16 13 3 6 11 12 12 9 6 17 28 12 7 14 14 11 10 16 11 13 10 12 8 8 7 4 3 9 6 9 6 14 17 27 30 29 25
24 28 28 31 14 15 27 15 25 8 6 14 12 10 18 14 17 15 29 16 8 7 7 4 8 9 11 10 9 5 5 9 9 5 6 10 8 4 7 6 9 18 20 19 20
26 25 24 21 20 13 14 20 22 5 8 10 12 18 16 20 8 12 17 10 8 7 7 9 2 3 7 6 7 5 4 3 3 3 8 9 8 5 8 9 6 6 21 18 25
27 24 25 24 30 15 10 13 4 9 8 7 9 17 22 15 14 9 13 12 9 6 11 9 7 4 2 7 4 10 9 3 3 4 6 5 11 13 14 5 4 9 13 24 24
26 21 20 24 18 20 12 2 6 3 9 5 11 17 21 16 14 14 16 14 16 9 9 9 7 11 7 7 5 13 10 4 6 4 3 8 7 5 2 9 9 4 19 21 22
23 20 18 18 17 18 9 5 3 1 3 6 10 14 13 18 9 15 19 21 18 19 8 10 8 11 16 7 10 6 11 7 4 3 2 5 5 8 5 6 4 7 19 22 21
28 21 14 18 18 17 2 6 1 3 6 8 12 9 17 20 15 17 18 17 15 21 15 2 3 4 6 11 10 7 5 6 6 4 5 6 7 8 4 9 9 10 15 22 21
28 12 11 19 19 6 3 2 2 3 4 4 6 7 16 15 21 16 14 10 26 20 22 2 3 1 6 9 14 10 5 5 5 5 4 2 5 7 3 3 13 15 24 22 22
19 4 17 19 4 2 1 3 1 3 3 1 5 5 11 21 17 17 19 18 20 22 25 15 5 4 8 1 9 16 13 11 5 6 4 7 14 5 1 3 4 16 24 26 26
11 6 18 19 4 4 2 2 3 1 3 3 1 6 8 13 14 24 17 15 13 23 17 15 5 5 3 4 4 7 13 17 15 6 9 8 15 6 13 15 10 9 4 23 26
11 3 5 9 3 3 4 3 4 7 3 5 2 5 4 6 18 19 20 10 19 16 19 24 5 13 16 9 8 7 13 19 16 8 14 14 27 16 9 9 5 8 13 14 21
5 2 3 4 4 3 5 4 7 5 8 12 5 7 2 4 10 10 23 11 9 16 17 10 9 13 17 11 5 7 11 16 18 23 14 22 21 25 16 10 17 18 23 19 23
5 4 4 2 10 8 6 3 9 6 7 5 8 11 7 5 5 12 10 13 10 7 14 11 7 8 12 15 15 14 11 11 23 23 17 24 22 22 26 26 24 26 21 23 30
7 9 5 9 2 4 8 7 7 11 9 22 14 7 9 16 15 14 23 29 9 12 14 13 8 6 12 13 8 11 22 19 15 16 19 17 25 22 24 21 27 27 28 35 32

GFSSW_850_spd_171.txt.gz
Wind_Speed
20 21 21 20 17 16 16 17 19 19 18 18 17 15 15 15 14 14 10 10 10 8 8 8 5 6 4 5 7 3 4 2 2 6 6 11 4 7 9 13 10 7 16 15 16
19 22 16 22 20 17 16 14 15 17 18 18 16 16 14 13 13 16 15 14 13 12 10 9 7 8 5 5 5 4 3 1 3 4 6 10 10 10 7 13 11 17 16 16 16
20 20 23 17 18 20 17 15 14 13 15 17 18 16 12 10 9 11 14 17 15 12 12 8 6 5 4 5 4 4 1 0 4 11 16 10 10 6 14 3 17 21 19 17 15
20 19 24 20 18 17 19 16 15 13 12 13 16 17 15 10 6 3 10 13 14 15 13 8 1 1 2 2 3 3 6 6 2 6 7 8 10 3 3 4 18 18 17 15 13
23 19 19 24 20 18 18 19 16 14 12 12 12 14 16 12 9 6 1 7 13 15 14 9 6 3 2 3 4 2 3 5 5 4 6 4 6 4 10 15 22 19 16 13 11
22 19 18 21 22 22 18 19 17 16 14 12 12 15 18 7 10 11 9 2 6 12 15 14 4 4 3 3 1 1 4 3 2 4 4 3 2 1 12 11 16 18 16 16 14
19 24 17 20 22 20 21 18 20 18 16 13 13 16 18 18 9 16 13 7 5 10 11 16 8 6 2 1 2 3 3 2 2 3 2 2 5 8 15 10 15 16 14 15 14
19 22 19 19 22 22 21 20 19 20 17 14 12 15 8 16 11 11 16 14 7 12 9 12 12 7 1 3 4 3 4 1 4 7 4 6 6 10 20 17 17 16 18 17 16
21 18 21 18 20 22 21 20 17 18 18 15 15 12 7 10 20 15 13 18 9 11 9 10 11 4 6 5 3 3 2 5 5 11 5 6 4 9 10 16 26 23 21 18 15
18 19 18 21 20 22 21 20 19 18 23 19 16 7 10 14 23 21 13 15 13 15 9 8 5 3 2 4 7 7 4 3 5 4 7 5 6 8 18 11 9 12 15 15 15
19 21 20 22 24 23 22 19 11 9 17 8 17 6 4 10 13 22 22 20 13 14 5 7 4 9 14 10 5 6 4 4 5 5 3 5 6 10 21 18 19 20 19 19 18
19 20 21 20 22 22 24 23 19 3 8 12 10 8 16 14 7 17 24 13 12 7 8 3 8 6 7 6 7 5 3 4 5 2 2 4 9 11 12 17 27 30 25 26 23
19 20 24 20 20 22 20 29 17 10 4 10 22 13 13 15 5 24 24 10 5 10 9 7 4 15 8 7 10 6 6 4 5 2 2 4 8 9 10 27 29 30 32 29 27
18 22 24 19 18 21 31 19 17 9 3 8 9 13 11 10 4 24 26 10 6 11 8 7 9 15 6 11 7 10 6 4 3 4 3 3 6 6 7 9 13 30 37 35 29
19 22 28 22 8 16 19 20 15 11 7 13 10 12 16 13 18 16 28 11 6 6 6 7 9 11 13 5 7 3 5 7 4 2 2 2 4 6 3 5 8 20 31 32 29
22 23 27 25 17 12 7 24 11 6 8 7 13 17 14 12 8 13 15 7 2 1 2 5 1 4 8 6 7 7 5 3 3 2 7 8 8 4 6 9 5 8 22 21 18
24 24 29 26 22 14 10 12 1 5 5 7 7 15 19 11 6 7 12 9 7 6 6 3 4 4 6 6 4 7 8 1 1 4 6 4 9 13 6 7 4 11 14 19 26
25 23 23 22 16 14 11 2 6 3 3 4 7 16 16 12 7 6 15 14 10 3 6 8 4 9 5 7 7 13 11 5 7 5 3 4 8 6 8 17 16 9 13 24 32
29 24 22 18 16 18 10 3 3 2 5 3 9 11 8 11 7 7 14 17 15 16 7 8 5 5 7 5 11 6 9 5 2 3 2 4 6 8 8 5 6 13 23 29 29
36 27 20 18 15 14 3 2 1 3 3 6 3 7 13 16 8 17 14 14 7 17 7 5 3 1 7 5 4 6 7 4 3 3 4 5 5 7 2 8 6 9 26 31 30
34 11 15 16 17 9 1 2 2 4 2 1 5 3 10 10 18 14 12 8 24 17 19 4 4 2 6 7 14 6 4 5 4 5 5 2 6 8 17 6 8 14 25 29 30
16 4 17 17 4 2 3 3 2 3 2 3 4 2 4 10 16 14 17 14 25 23 22 12 4 5 9 3 4 18 12 11 6 5 5 1 7 3 9 5 5 8 18 28 32
9 9 16 19 3 1 2 2 3 3 2 3 2 4 4 3 6 20 7 14 17 21 13 12 6 3 1 4 3 6 13 12 10 2 6 4 11 6 14 7 9 9 13 22 31
8 3 4 6 3 6 4 3 3 3 2 3 2 3 2 1 4 6 17 6 22 23 23 23 4 16 17 11 8 9 13 19 16 7 11 15 26 17 9 8 9 7 10 15 29
6 2 4 4 2 2 2 4 3 2 4 6 2 5 5 4 5 9 7 11 10 12 19 13 12 11 15 3 8 10 15 17 20 24 11 23 21 24 16 8 20 27 26 12 23
5 4 4 3 12 4 1 3 4 4 4 5 6 1 5 5 8 7 3 4 7 9 12 9 6 8 14 10 9 4 10 18 23 23 18 24 21 20 18 10 11 17 22 22 22
10 10 4 3 3 4 4 6 5 6 10 16 9 1 8 14 14 16 20 15 9 7 14 13 9 6 14 7 5 7 21 16 13 20 18 19 26 23 20 16 21 25 29 35 35

GFSSW_850_spd_174.txt.gz
Wind_Speed
18 19 19 18 18 16 16 17 19 19 20 22 20 18 15 12 13 12 9 10 10 8 10 8 9 10 5 6 7 5 4 1 3 6 5 11 6 4 7 12 7 4 14 15 21
16 19 20 17 21 18 15 15 16 18 18 17 17 17 17 14 14 15 13 13 12 11 11 9 9 8 4 6 5 5 3 2 2 6 6 10 13 13 7 12 8 16 17 20 22
19 17 19 20 19 21 17 16 15 16 17 18 16 14 13 13 12 12 15 16 15 11 10 8 7 5 3 4 5 2 2 4 5 3 15 13 11 6 19 2 17 25 24 22 22
20 21 18 18 20 21 21 17 16 14 14 14 16 16 13 10 7 6 12 15 16 14 13 8 4 2 1 2 4 2 5 4 4 7 6 8 9 7 10 6 16 23 24 24 22
22 20 19 18 21 18 20 19 17 15 13 12 14 16 15 11 8 4 5 12 15 16 15 11 8 3 2 2 3 2 2 4 4 6 8 3 5 2 9 10 17 24 24 23 20
18 19 19 16 20 21 18 21 18 15 14 12 12 15 18 7 9 13 8 2 9 16 15 13 8 7 2 1 1 1 2 4 3 2 4 4 3 2 8 12 22 24 23 21 20
19 20 20 15 18 23 22 17 19 17 16 12 12 15 16 19 8 13 15 12 6 12 15 15 10 10 5 2 1 1 1 3 3 4 1 3 5 6 9 14 21 23 22 21 20
19 18 18 16 16 22 21 19 17 21 17 13 12 13 8 16 13 13 14 12 10 10 12 16 12 6 5 6 4 3 5 2 3 7 4 6 7 11 13 10 16 21 22 23 22
19 19 19 20 16 18 21 20 16 12 17 14 14 10 5 10 22 14 16 16 10 12 10 12 11 4 5 6 3 5 3 3 6 9 3 4 6 12 8 11 17 19 21 22 21
17 15 19 19 15 18 19 19 17 15 16 16 10 6 10 13 20 23 12 18 10 14 11 9 5 3 2 3 8 7 6 4 6 1 4 6 8 7 11 5 8 10 21 25 23
17 15 19 16 21 19 20 20 13 12 25 9 13 5 3 10 16 21 18 18 13 12 5 6 4 9 15 14 3 5 4 5 3 5 3 8 7 11 20 13 16 20 20 17 20
17 16 19 17 19 19 23 22 14 4 3 9 11 20 4 16 9 16 21 12 10 7 7 3 8 6 5 3 4 4 4 3 4 3 5 3 7 8 11 9 19 25 27 27 25
16 18 17 19 15 24 27 22 20 11 1 16 12 21 13 15 6 19 26 12 5 6 9 6 4 13 8 5 7 4 5 4 4 4 4 6 6 7 9 16 30 36 36 35 36
15 18 17 18 18 21 19 25 22 16 3 7 14 11 15 11 3 17 30 10 5 11 6 4 3 11 6 8 7 6 6 5 3 2 4 1 6 6 6 8 7 27 35 44 37
17 19 20 19 16 16 21 22 14 19 5 13 10 9 17 11 14 15 29 6 6 6 6 6 7 8 10 6 7 5 6 7 4 3 0 3 4 6 4 6 11 17 28 31 38
19 20 21 19 17 7 12 15 6 1 6 6 10 12 7 9 5 15 16 5 4 3 3 5 1 7 9 6 10 7 6 5 4 2 6 8 8 5 6 11 5 13 25 25 25
20 22 21 21 13 12 7 10 3 3 5 7 7 14 17 9 6 5 11 9 6 6 9 4 3 2 5 5 3 5 8 1 1 4 7 2 8 12 7 9 8 9 13 17 17
23 23 21 21 18 12 7 3 3 2 4 6 8 16 14 11 7 6 12 13 8 2 5 7 5 8 6 7 8 11 10 5 8 5 4 2 7 6 10 18 24 31 23 14 19
27 24 21 18 13 14 10 3 3 3 1 7 14 11 7 10 7 9 14 16 15 13 8 8 6 2 5 4 10 5 9 5 4 2 2 4 6 8 9 9 7 6 13 14 20
34 27 21 17 14 15 3 4 2 2 2 3 4 4 7 15 9 14 14 14 6 17 4 7 2 3 6 4 1 7 8 3 2 2 4 5 5 7 2 10 5 5 17 20 23
35 11 16 14 12 6 2 1 2 1 2 3 4 3 2 4 7 9 12 7 19 14 15 4 3 1 5 9 14 5 7 5 5 5 5 2 6 7 13 6 8 8 15 20 25
15 5 19 20 5 3 2 2 1 3 3 2 3 3 3 4 5 10 14 9 22 16 17 8 4 5 6 1 3 16 10 15 6 5 4 2 14 3 6 9 3 5 10 20 27
9 10 16 13 3 1 1 1 1 3 2 1 1 1 2 2 5 8 6 8 8 17 9 10 6 2 2 4 3 6 11 9 6 3 15 6 12 7 11 9 2 2 4 8 21
8 3 5 4 2 6 3 3 1 3 1 3 2 2 2 2 6 4 9 9 11 17 23 16 5 16 17 10 7 8 14 17 14 6 11 17 18 6 6 6 1 5 6 8 11
6 2 4 3 2 2 2 4 2 1 2 4 1 5 3 0 3 5 3 3 10 11 14 7 8 10 21 6 9 15 16 16 18 26 12 24 22 21 17 6 16 24 23 20 21
5 7 5 3 10 4 4 3 5 3 6 4 4 6 6 7 6 4 4 3 5 5 8 4 7 8 11 9 7 6 16 23 27 26 19 23 22 12 10 12 17 18 13 15 19
13 13 5 1 2 4 4 6 4 2 5 10 6 4 9 8 17 18 16 12 6 5 3 2 5 7 14 8 6 8 21 20 20 23 25 20 27 24 19 12 21 25 30 36 35